CW7148 Weather Reports


Display with metric or nautical units.
time (UTC)temp
F
wind
direction
speed
MPH
gust
MPH
rain 1hr
in
rain 24hr
in
rain mn
in
humidity
%
barometer
mb
20220814090440 62 13 1.0 5.0 0.00 0.00 0.00 93 1015.7
20220814085440 62 13 3.0 7.0 0.00 0.00 0.00 93 1015.6
20220814084410 62 13 3.0 7.0 0.00 0.00 0.00 93 1015.6
20220814082410 62 15 4.0 8.0 0.00 0.00 0.00 93 1015.6
20220814075440 62 24 3.0 6.0 0.00 0.00 0.00 93 1015.4
20220814072440 62 26 2.0 6.0 0.00 0.00 0.00 92 1015.6
20220814071440 62 26 3.0 5.0 0.00 0.00 0.00 92 1015.5
20220814063440 63 26 2.0 5.0 0.00 0.00 0.00 91 1015.7
20220814061440 63 26 0.0 4.0 0.00 0.00 0.00 91 1015.8
20220814060440 63 26 1.0 3.0 0.00 0.00 0.00 91 1015.8
20220814054440 63 26 3.0 8.0 0.00 0.00 0.00 90 1015.9
20220814051440 63 26 2.0 5.0 0.00 0.01 0.00 90 1016.0
20220814050410 63 26 1.0 5.0 0.00 0.01 0.00 90 1016.0
20220814045440 63 26 1.0 3.0 0.00 0.01 0.00 90 1015.9
20220814044410 64 26 1.0 5.0 0.00 0.01 0.00 90 1015.9
20220814042440 64 26 3.0 6.0 0.00 0.01 0.01 90 1015.9
20220814040440 64 26 1.0 4.0 0.00 0.01 0.01 90 1015.9
20220814034440 64 26 1.0 3.0 0.00 0.01 0.01 89 1015.9
20220814032440 64 26 2.0 6.0 0.00 0.01 0.01 89 1015.9
20220814031440 65 26 2.0 4.0 0.00 0.01 0.01 89 1016.0
20220814030440 65 26 1.0 4.0 0.00 0.01 0.01 89 1016.0
20220814025440 65 26 2.0 4.0 0.00 0.01 0.01 89 1016.0
20220814021440 65 26 2.0 3.0 0.00 0.01 0.01 88 1016.0
20220814011440 66 26 1.0 6.0 0.00 0.01 0.01 86 1015.4
20220814001440 67 21 3.0 12.0 0.00 0.01 0.01 86 1015.4
20220814000440 67 19 9.0 11.0 0.00 0.01 0.01 86 1015.4
20220813235440 67 23 2.0 10.0 0.00 0.01 0.01 85 1015.2
20220813232440 67 24 3.0 10.0 0.00 0.01 0.01 85 1014.9
20220813230439 67 22 4.0 11.0 0.00 0.01 0.01 85 1015.0
20220813225439 68 19 11.0 12.0 0.00 0.01 0.01 85 1015.0
20220813222439 68 9 3.0 10.0 0.00 0.01 0.01 85 1014.8
20220813220439 68 22 6.0 11.0 0.00 0.01 0.01 85 1014.9
20220813215439 68 19 3.0 15.0 0.00 0.01 0.01 85 1014.8
20220813213439 68 22 3.0 11.0 0.00 0.01 0.01 85 1014.6
20220813212439 68 20 3.0 12.0 0.00 0.01 0.01 85 1014.6
20220813210439 68 26 6.0 11.0 0.00 0.01 0.01 85 1014.6
20220813203439 69 24 5.0 9.0 0.00 0.01 0.01 86 1014.5
20220813202439 69 20 7.0 14.0 0.00 0.01 0.01 86 1014.6
20220813194439 68 328 6.0 14.0 0.00 0.01 0.01 88 1014.7
20220813192439 67 12 8.0 15.0 0.00 0.01 0.01 89 1014.6
20220813185439 67 17 5.0 14.0 0.00 0.01 0.01 90 1014.5
20220813184439 67 15 5.0 13.0 0.00 0.01 0.01 89 1014.5
20220813183439 67 17 8.0 13.0 0.00 0.01 0.01 90 1014.3
20220813180439 67 332 10.0 13.0 0.00 0.01 0.01 90 1014.1
20220813174439 68 317 4.0 15.0 0.00 0.01 0.01 89 1014.1
20220813173439 68 11 7.0 10.0 0.00 0.01 0.01 90 1014.0
20220813165439 68 15 8.0 15.0 0.00 0.01 0.01 90 1013.6
20220813164439 69 341 5.0 14.0 0.00 0.01 0.01 90 1013.6
20220813155439 71 26 4.0 9.0 0.00 0.01 0.01 90 1012.9
20220813154439 71 176 5.0 6.0 0.00 0.01 0.01 91 1012.9
20220813151439 71 175 2.0 6.0 0.00 0.02 0.01 93 1012.6
20220813150439 71 175 6.0 7.0 0.00 0.02 0.01 93 1012.6
20220813142439 69 175 0.0 2.0 0.00 0.06 0.01 95 1012.4
20220813133439 68 169 0.0 2.0 0.00 0.18 0.01 95 1012.6
20220813131439 67 169 0.0 4.0 0.00 0.30 0.01 95 1012.6
20220813125439 67 169 1.0 6.0 0.00 0.42 0.01 95 1012.5
20220813124439 66 169 1.0 9.0 0.00 0.46 0.01 95 1012.2
20220813121439 65 169 4.0 9.0 0.00 0.58 0.01 96 1012.4
20220813114439 64 169 4.0 6.0 0.00 0.60 0.01 95 1013.0
20220813113439 64 169 4.0 4.0 0.00 0.61 0.01 95 1012.9
20220813104439 64 169 1.0 7.0 0.00 0.61 0.01 94 1012.5
20220813103438 64 169 1.0 9.0 0.00 0.61 0.01 94 1012.6
20220813102438 64 169 5.0 12.0 0.00 0.61 0.01 94 1012.4
20220813101438 64 170 5.0 12.0 0.00 0.61 0.01 94 1012.5